This is the latest recevied weather packets stored in our database for station/object W1RCY. If no packets are shown the sender has not sent any weather packets the latest 10 day(s).
| Time | Temp. | Humidity | Pressure | Rain* | Wind** | Luminosity | Snow |
|---|---|---|---|---|---|---|---|
| 1777923908 | 20.56° C | 38% | 1004 hPa | 0 mm | - | 571 W/m² | - |
| 1777923603 | 20° C | 40% | 1004.2 hPa | 0 mm | - | 588 W/m² | - |
| 1777923301 | 20° C | 40% | 1003.9 hPa | 0 mm | - | 614 W/m² | - |
| 1777922999 | 20.56° C | 40% | 1004.1 hPa | 0 mm | - | 629 W/m² | - |
| 1777922696 | 21.11° C | 39% | 1004.3 hPa | 0 mm | - | 620 W/m² | - |
| 1777922395 | 20.56° C | 38% | 1004.4 hPa | 0 mm | - | 633 W/m² | - |
| 1777922093 | 20.56° C | 39% | 1004.2 hPa | 0 mm | - | 619 W/m² | - |
| 1777921788 | 20° C | 40% | 1004.3 hPa | 0 mm | - | 638 W/m² | - |
| 1777921484 | 20.56° C | 38% | 1004.2 hPa | 0 mm | - | 656 W/m² | - |
| 1777921181 | 20.56° C | 37% | 1004.4 hPa | 0 mm | - | 707 W/m² | - |
| 1777920878 | 20° C | 41% | 1004.4 hPa | 0 mm | - | 472 W/m² | - |
| 1777920574 | 18.89° C | 41% | 1004.6 hPa | 0 mm | - | 294 W/m² | - |
| 1777920269 | 18.33° C | 41% | 1004.6 hPa | 0 mm | - | 242 W/m² | - |
| 1777919966 | 18.33° C | 41% | 1004.4 hPa | 0 mm | - | 138 W/m² | - |
| 1777919663 | 18.33° C | 41% | 1004.5 hPa | 0 mm | - | 107 W/m² | - |
| 1777919361 | 18.33° C | 41% | 1004.4 hPa | 0 mm | - | 148 W/m² | - |
| 1777919058 | 18.89° C | 40% | 1004.4 hPa | 0 mm | - | 161 W/m² | - |
| 1777918754 | 19.44° C | 41% | 1004.2 hPa | 0 mm | - | 258 W/m² | - |
| 1777918452 | 18.89° C | 41% | 1004.3 hPa | 0 mm | - | 701 W/m² | - |
| 1777918151 | 18.89° C | 39% | 1004.4 hPa | 0 mm | - | 383 W/m² | - |
| 1777917849 | 18.89° C | 40% | 1004.4 hPa | 0 mm | - | 270 W/m² | - |
| 1777917547 | 18.89° C | 38% | 1004.3 hPa | 0 mm | - | 286 W/m² | - |
| 1777917243 | 20° C | 38% | 1004.2 hPa | 0 mm | - | 548 W/m² | - |
| 1777916941 | 20° C | 38% | 1004.1 hPa | 0 mm | - | 271 W/m² | - |
| 1777916639 | 20° C | 38% | 1004.2 hPa | 0 mm | - | 232 W/m² | - |
* Rain latest hour (hover to see other rain measurements)
** Current wind speed in m/s (hover to see current wind gust speed)